Das Wetter in  D-61279 Heinzenberg / Taunus





Wetter Minimum- & Maximum-Werte im Februar 2012

Standort: Heinzenberg / Taunus - Höhe 297 m         8 24' 1" Ost 50 21' 51" Nord
(   3-stündige Aktualisierung    letzte Aktualisierung um 19:04 am 29.02.2012  )


Messgrösse

Minimum

Maximum

Durchschnitt

Temperatur West /
Luftfeuchte West
Anklicken für Monats-Diagramm

-19,1 C

06:22
07.02.2012

33 %

16:32
02.02.2012

13,2 C

16:13
29.02.2012

99 %

00:15
15.02.2012

Temp

-2,1 C

Feuchte

82 %

Temperatur Ost /
Luftfeuchte Ost
Anklicken für Monats-Diagramm

-18,9 C

06:27
07.02.2012

--

--
--

13,3 C

16:18
29.02.2012

--

--
--

-1,8 C

--

Luftdruck Anklicken für Monats-Diagramm

1006,4 hPa

06:35
15.02.2012

1041,2 hPa

07:33
04.02.2012

1028,9 hPa

Taupunkt

-22,4 C

06:22
07.02.2012

10,7 C

15:33
29.02.2012

-4,9 C

Windchill
( gefühlte Temperatur )

-25,5 C

05:02
07.02.2012

13,1 C

16:28
29.02.2012

-5,3 C

Windgeschwindigkeit /
Windrichtung
Anklicken für Monats-Diagramm

---

45,0 km/h / W-NW

06:25
15.02.2012

8,4 km/h
W

Helligkeit /
Sonnenschein
Anklicken für Monats-Diagramm
Anklicken für Monats-Diagramm

Sonnenschein:

103:50 Stunden

Max: 8:20 Std am
11.02.2012

68,1 klux

11:56
21.02.2012

16,4 klux

Solarstrahlung Anklicken für Monats-Diagramm

---

466 W/m

11:56
21.02.2012

124 W/m

Regenmenge
    Februar 2012
Anklicken für Monats-Diagramm

Insgesamt 4,1 l/m

in 62:29 Stunden
an 16 Tagen

1,8 l/m

03:54
19.02.2012

Gesamtmenge

4,1 l/m

Regen-Tage
    Februar 2012
Anklicken für Monats-Diagramm

>   0 mm/Tag

>   2 mm/Tag

>   5 mm/Tag

> 10 mm/Tag

> 20 mm/Tag

16 Tage     
0 Tage     
0 Tage     
0 Tage     
0 Tage     

Eisige Tage Februar 2012 / 2011

Tmin ≤ -10C     

12 Tage

/

  1 Tag

Eistage Februar 2012 / 2011

Tmax <     0C     

13 Tage

/

3 Tage

Frosttage Februar 2012 / 2011

Tmin ≤     0C     

20 Tage

/

17 Tage

Kalte Tage Februar 2012 / 2011

Tmax <   10C     

25 Tage

/

24 Tage

Warme Tage Februar 2012 / 2011

Tmax ≥   20C     

0 Tage

/

0 Tage

Sommertage Februar 2012 / 2011

Tmax ≥   25C     

0 Tage

/

0 Tage

Heisse Tage Februar 2012 / 2011

Tmax ≥   30C     

0 Tage

/

0 Tage


Monatsdiagramm Februar 2012

Die Kurven zeigen den Durchschnittswert des jeweiligen Tages an


Wetter-Monatsübersicht Februar 2012
Datum
  Temperatur
   Luftdruck
   Wind
  Regen
   Luftfeuchte
   Helligkeit

Sonnen-
schein


Temp.

Min.
Temp.

Max.
Temp.


Luftdruck

Min.
Luftdruck

Max.
Luftdruck

-Geschw.
Haupt-Richtg.

Max.
Wind

Menge /
Dauer


Feuchte

Min.
Feuchte

Max.
Feuchte


Helligkeit

Max.
Helligkeit

1.
Februar
-7,9 C-10,1 C
05:41
-2,7 C
16:26
1029,7 hPa1027,9 hPa
16:26
1032,0 hPa
23:57
10,6 km/h
NO
36,2 km/h
18:21  
---
68 %40 %
16:41
82 %
04:41
21,2 klux38,3 klux
12:51
7:35 Std 
2.
Februar
-9,6 C-12,4 C
06:52
-3,9 C
15:57
1032,5 hPa1031,0 hPa
00:02
1035,5 hPa
23:58
8,4 km/h
NO
25,1 km/h
15:22  
---
59 %33 %
16:32
75 %
05:12
23,3 klux41,7 klux
12:27
7:55 Std 
3.
Februar
-10,2 C-14,8 C
07:53
-4,2 C
16:28
1036,4 hPa1035,3 hPa
16:28
1038,6 hPa
23:54
2,0 km/h
NO
16,7 km/h
15:08  
---
68 %52 %
16:18
82 %
23:49
24,2 klux42,8 klux
12:18
7:55 Std 
4.
Februar
-11,3 C-15,8 C
07:14
-5,1 C
14:29
1039,2 hPa1037,5 hPa
14:29
1041,2 hPa
07:33
1,1 km/h
NO
13,1 km/h
16:14  
---
77 %56 %
16:14
87 %
09:39
22,9 klux44,2 klux
12:14
7:10 Std 
5.
Februar
-11,8 C-16,3 C
07:50
-4,8 C
16:25
1035,4 hPa1033,3 hPa
16:25
1038,0 hPa
02:35
3,8 km/h
O-SO
25,0 km/h
11:55  
---
71 %47 %
16:35
86 %
09:05
23,4 klux43,9 klux
12:25
7:55 Std 
6.
Februar
-12,5 C-17,1 C
08:11
-5,8 C
14:46
1036,7 hPa1034,5 hPa
14:46
1038,3 hPa
08:46
1,2 km/h
NO
14,5 km/h
12:46  
---
71 %50 %
14:46
84 %
10:01
22,8 klux42,2 klux
12:46
8:00 Std 
7.
Februar
-13,2 C-19,1 C
06:22
-8,7 C
13:47
1038,5 hPa1037,0 hPa
13:47
1039,6 hPa
06:22
7,1 km/h
NO
25,6 km/h
12:42  
0,2 l/m
5 Minuten
75 %63 %
12:22
84 %
19:27
14,6 klux35,4 klux
10:52
2:10 Std 
8.
Februar
-7,8 C-10,8 C
23:44
-3,6 C
16:28
1038,0 hPa1036,3 hPa
16:28
1039,0 hPa
09:48
5,4 km/h
NO
25,0 km/h
10:08  
---
75 %62 %
16:33
83 %
07:58
20,2 klux45,5 klux
12:48
4:50 Std 
9.
Februar
-9,6 C-15,6 C
07:08
-4,2 C
17:19
1036,6 hPa1033,3 hPa
16:24
1038,8 hPa
03:09
3,1 km/h
SO
17,1 km/h
16:59  
---
15 Minuten
84 %76 %
00:04
89 %
15:59
6,3 klux18,0 klux
16:19
10 Min 
10.
Februar
-7,8 C-11,8 C
23:56
-4,0 C
14:55
1038,8 hPa1037,4 hPa
15:55
1040,2 hPa
08:45
6,5 km/h
NO
25,9 km/h
14:15  
---
75 %58 %
16:05
91 %
04:05
25,1 klux47,0 klux
12:50
8:15 Std 
11.
Februar
-10,7 C-16,4 C
07:16
-4,0 C
16:11
1035,9 hPa1033,2 hPa
16:11
1038,7 hPa
01:26
3,9 km/h
NO
26,3 km/h
14:01  
---
71 %53 %
16:26
85 %
07:56
26,2 klux46,9 klux
12:21
8:20 Std 
12.
Februar
-9,0 C-16,8 C
06:07
-0,8 C
15:57
1032,8 hPa1029,0 hPa
20:12
1036,1 hPa
04:17
1,8 km/h
SO
12,3 km/h
13:52  
---
69 %44 %
16:12
85 %
10:17
25,3 klux63,0 klux
12:57
5:55 Std 
13.
Februar
-2,2 C-4,2 C
00:43
-0,4 C
21:53
1023,2 hPa1017,2 hPa
22:29
1029,1 hPa
00:43
6,8 km/h
W
19,8 km/h
06:18  
---
1:41 Stunden
87 %62 %
00:08
96 %
22:08
4,4 klux9,6 klux
11:18
--- 
14.
Februar
0,4 C-0,9 C
07:19
1,6 C
15:29
1016,1 hPa1011,8 hPa
23:55
1017,2 hPa
07:34
9,0 km/h
W
34,7 km/h
23:25  
---
6:52 Stunden
96 %95 %
10:54
98 %
08:09
5,4 klux15,1 klux
14:29
--- 
15.
Februar
2,0 C0,6 C
00:00
4,0 C
13:35
1011,3 hPa1006,4 hPa
06:35
1019,0 hPa
23:51
23,5 km/h
W-NW
45,0 km/h
06:25  
1,5 l/m
11:51 Stunden
91 %80 %
13:45
99 %
00:15
7,9 klux55,3 klux
13:30
15 Min 
16.
Februar
2,1 C0,7 C
05:51
3,7 C
12:11
1023,7 hPa1019,0 hPa
00:26
1026,0 hPa
11:26
10,5 km/h
W
22,1 km/h
10:36  
---
4:39 Stunden
91 %76 %
12:41
99 %
22:57
12,7 klux56,0 klux
10:46
1:30 Std 
17.
Februar
4,2 C2,9 C
00:32
6,0 C
12:52
1023,0 hPa1022,6 hPa
12:42
1025,0 hPa
00:12
17,7 km/h
W
35,8 km/h
11:32  
---
5:30 Stunden
95 %91 %
12:22
99 %
00:02
10,4 klux27,1 klux
12:22
--- 
18.
Februar
4,6 C2,7 C
04:08
6,4 C
15:03
1017,5 hPa1011,3 hPa
23:09
1022,9 hPa
02:03
13,3 km/h
W-SW
36,3 km/h
22:49  
0,2 l/m
9:50 Stunden
95 %90 %
16:38
98 %
09:23
8,1 klux23,5 klux
12:08
--- 
19.
Februar
1,9 C-0,3 C
23:50
5,2 C
03:04
1018,3 hPa1008,2 hPa
03:29
1029,6 hPa
23:50
18,0 km/h
W
40,4 km/h
04:09  
1,8 l/m
9:31 Stunden
93 %81 %
15:09
98 %
05:09
15,0 klux67,9 klux
12:19
2:30 Std 
20.
Februar
-0,4 C-4,0 C
23:56
4,2 C
15:50
1034,0 hPa1029,6 hPa
00:00
1036,6 hPa
12:35
2,5 km/h
W-NW
13,3 km/h
11:00  
---
2:15 Stunden
84 %61 %
16:20
96 %
09:10
25,7 klux66,4 klux
12:35
6:45 Std 
21.
Februar
1,0 C-4,4 C
01:51
6,4 C
14:51
1032,6 hPa1030,8 hPa
14:51
1035,3 hPa
00:16
7,7 km/h
W-SW
25,4 km/h
10:11  
---
78 %65 %
12:11
91 %
00:26
18,4 klux68,1 klux
11:56
2:15 Std 
22.
Februar
2,9 C-3,1 C
07:22
10,2 C
16:07
1030,0 hPa1023,7 hPa
22:43
1034,1 hPa
07:42
4,8 km/h
W-SW
20,4 km/h
14:52  
---
77 %57 %
16:02
95 %
08:02
30,3 klux53,6 klux
12:47
8:20 Std 
23.
Februar
5,4 C2,9 C
05:43
7,6 C
17:28
1024,3 hPa1021,6 hPa
03:13
1026,7 hPa
23:43
14,0 km/h
W
27,0 km/h
04:13  
---
2:25 Stunden
85 %57 %
00:08
94 %
22:43
6,1 klux11,8 klux
11:53
--- 
24.
Februar
8,0 C6,0 C
00:03
10,9 C
16:13
1025,9 hPa1025,0 hPa
16:13
1026,7 hPa
00:03
17,2 km/h
W
31,5 km/h
18:58  
---
3:00 Stunden
93 %85 %
16:18
98 %
07:43
8,7 klux24,9 klux
11:38
--- 
25.
Februar
7,2 C4,3 C
08:04
11,4 C
13:09
1024,2 hPa1021,1 hPa
16:29
1026,9 hPa
08:04
10,9 km/h
W-NW
32,6 km/h
12:24  
---
1:00 Stunden
82 %61 %
16:09
97 %
00:24
21,0 klux67,2 klux
12:59
3:35 Std 
26.
Februar
3,6 C-1,0 C
23:51
6,9 C
15:20
1025,3 hPa1022,8 hPa
00:00
1029,7 hPa
23:56
10,5 km/h
W-NW
26,8 km/h
15:05  
0,5 l/m
1:50 Stunden
89 %81 %
15:25
96 %
23:26
11,8 klux56,4 klux
12:40
30 Min 
27.
Februar
3,1 C-1,7 C
02:56
7,4 C
14:06
1027,0 hPa1024,6 hPa
16:41
1029,8 hPa
02:56
6,3 km/h
W-SW
25,4 km/h
14:11  
---
86 %69 %
14:11
99 %
07:26
12,8 klux62,2 klux
14:01
25 Min 
28.
Februar
7,2 C5,4 C
03:57
9,1 C
14:42
1024,3 hPa1023,2 hPa
15:52
1025,4 hPa
23:53
12,1 km/h
W
24,7 km/h
11:22  
---
20 Minuten
90 %82 %
00:02
97 %
21:17
7,9 klux33,3 klux
11:42
--- 
29.
Februar
8,7 C4,9 C
22:59
13,2 C
16:13
1025,7 hPa1024,8 hPa
16:13
1026,8 hPa
22:59
4,1 km/h
W
15,8 km/h
01:33  
---
1:25 Stunden
95 %84 %
16:13
99 %
01:13
13,0 klux42,4 klux
15:18
1:35 Std 



Februar
2012

Temperatur

  

Luftdruck

  

Wind

  

Regen

  

Luftfeuchte

  

Helligkeit

Sonnen-
schein

Min

Max

Min

Max

Max

Max

Min

Max

Max

Max

-2,1 C

-19,1 C

06:22 Uhr
07.02.2012

13,2 C

16:13 Uhr
29.02.2012

1028,9 hPa

1006,4 hPa

06:35 Uhr
15.02.2012

1041,2 hPa

07:33 Uhr
04.02.2012

8,4 km/h

W

45,0 km/h

06:25 Uhr
15.02.2012

1,8 l/m

9:31 Stunden
19.02.2012

82 %

33 %

16:32 Uhr
02.02.2012

99 %

00:15 Uhr
15.02.2012

16,4 klux

68,1 klux

11:56 Uhr
21.02.2012

8:20 Std

am
11.02.2012

Gesamt

Gesamt

4,1 l/m

16 Tage
62:29 h

103:50 Std


Wetter-Diagramme Februar 2012     Heinzenberg / Taunus   
TemperaturLuftfeuchte
SolarstrahlungLuftdruck
HelligkeitSonnenschein
RegenmengeRegendauer
Wind-GeschwindigkeitWind-Richtung